Change the Weather History Date:

Monday, October 1, 2012

  Actual Average Record
Temperature  
Mean Temperature 60 °F -  
Max Temperature 72 °F 68 °F 82 °F (2013)
Min Temperature 48 °F 48 °F 43 °F (1997)
Degree Days  
Heating Degree Days 5    
Growing Degree Days 10 (Base 50)    
Moisture  
Dew Point 47 °F    
Average Humidity 61    
Maximum Humidity 86    
Minimum Humidity 41    
Precipitation  
Precipitation 0.00 in - - ()
Sea Level Pressure  
Sea Level Pressure 29.88 in    
Wind  
Wind Speed 7 mph (WSW)    
Max Wind Speed 15 mph    
Max Gust Speed 22 mph    
Visibility 10 miles    
Events      
Averages and records for this station are not official NWS values.
T = Trace of Precipitation, MM = Missing Value Source: NWS Daily Summary

Daily Weather History Graph

Daily Weather History Graph

Search for Another Location

Airport or City:

Trip Planner

Search our weather history database for the weather conditions in past years. The results will help you decide how hot, cold, wet, or windy it might be!

Date:

Astronomy

Oct. 01, 2012 Rise Set
Actual Time 6:53 AM EDT 6:37 PM EDT
Civil Twilight 6:25 AM EDT 7:04 PM EDT
Nautical Twilight 5:54 AM EDT 7:36 PM EDT
Astronomical Twilight 5:21 AM EDT 8:08 PM EDT
Moon 7:11 PM EDT (10/1) 8:21 AM EDT (10/1)
Length of Visible Light 12h 38m
Length of Day
11h 44m
Full, 98% of the Moon is Illuminated
Oct 1
Full
Oct 8
Last Quarter
Oct 15
New
Oct 21
First Quarter
Oct 29
Full

Hourly Weather History & Observations

Time (EDT) Temp. Dew Point Humidity Pressure Visibility Wind Dir Wind Speed Gust Speed Precip Events Conditions
12:51 AM 54.0 °F 44.1 °F 69% 29.82 in 10.0 mi West 5.8 mph - N/A   Clear
1:51 AM 53.1 °F 44.1 °F 71% 29.82 in 10.0 mi WSW 5.8 mph - N/A   Clear
2:51 AM 51.1 °F 45.0 °F 80% 29.82 in 10.0 mi SSW 4.6 mph - N/A   Clear
3:51 AM 53.1 °F 45.0 °F 74% 29.82 in 10.0 mi SW 5.8 mph - N/A   Clear
4:51 AM 52.0 °F 44.1 °F 74% 29.83 in 10.0 mi SSW 4.6 mph - N/A   Clear
5:51 AM 48.9 °F 44.1 °F 83% 29.83 in 10.0 mi SSW 5.8 mph - N/A   Clear
6:51 AM 50.0 °F 46.0 °F 86% 29.85 in 10.0 mi SSW 3.5 mph - N/A   Clear
7:51 AM 53.1 °F 46.0 °F 77% 29.86 in 10.0 mi SSW 6.9 mph - N/A   Clear
8:51 AM 57.9 °F 46.0 °F 65% 29.87 in 10.0 mi WSW 9.2 mph - N/A   Clear
9:51 AM 62.1 °F 46.0 °F 56% 29.88 in 10.0 mi West 8.1 mph - N/A   Clear
10:51 AM 64.0 °F 46.0 °F 52% 29.88 in 10.0 mi West 12.7 mph - N/A   Clear
11:51 AM 66.0 °F 46.9 °F 50% 29.88 in 10.0 mi WNW 15.0 mph 19.6 mph N/A   Clear
12:51 PM 68.0 °F 48.0 °F 49% 29.87 in 10.0 mi WNW 11.5 mph 17.3 mph N/A   Clear
1:51 PM 70.0 °F 48.0 °F 46% 29.86 in 10.0 mi WSW 13.8 mph - N/A   Clear
2:51 PM 71.1 °F 46.9 °F 42% 29.86 in 10.0 mi West 12.7 mph 21.9 mph N/A   Clear
3:51 PM 72.0 °F 46.9 °F 41% 29.86 in 10.0 mi WNW 9.2 mph - N/A   Clear
4:51 PM 71.1 °F 48.0 °F 44% 29.88 in 10.0 mi West 9.2 mph - N/A   Clear
5:51 PM 69.8 °F 48.2 °F 46% 29.88 in 10.0 mi WSW 8.1 mph - N/A   Clear
6:51 PM 66.9 °F 48.0 °F 51% 29.91 in 10.0 mi WSW 5.8 mph - N/A   Clear
7:51 PM 66.0 °F 48.0 °F 52% 29.93 in 10.0 mi WSW 8.1 mph - N/A   Clear
8:51 PM 63.0 °F 48.9 °F 60% 29.95 in 10.0 mi Calm Calm - N/A   Clear
9:51 PM 63.0 °F 48.9 °F 60% 29.96 in 10.0 mi Calm Calm - N/A   Clear
10:51 PM 62.1 °F 51.1 °F 67% 29.96 in 10.0 mi Calm Calm - N/A   Clear
11:51 PM 61.0 °F 51.1 °F 70% 29.96 in 10.0 mi Calm Calm - N/A   Partly Cloudy